When you browse on this site, cookies collect data to enhance your experience and personalize the content and advertising you see.
Visit our Privacy Policy to learn more. By continuing to use the site, you agree to this use of cookies and data.
  • In Switzerland
  • List of Countries
  • For 7 days
  • Water Temperature
  • Satellite Maps
  • Weather Map
  • Weather Widgets
  • user-avatar
    Login

    Hourly Weather Lihachi

    Today, 19 May, Sunday

    Time Temperature Precipitation Wind Pressure Humidity
    00:00 +17°C° 0 mm 3 mps 744 mmHg 94%
    01:00 +17°C° 0 mm 3 mps 744 mmHg 95%
    02:00 +16°C° 0 mm 3 mps 744 mmHg 97%
    03:00 +16°C° 0 mm 3 mps 744 mmHg 97%
    04:00 +16°C° 0 mm 3 mps 744 mmHg 96%
    05:00 +16°C° 0 mm 3 mps 744 mmHg 96%
    06:00 +17°C° 0 mm 4 mps 744 mmHg 92%
    07:00 +17°C° 0 mm 4 mps 744 mmHg 89%
    08:00 +17°C° 0 mm 5 mps 744 mmHg 86%
    09:00 +19°C° 0 mm 5 mps 744 mmHg 81%
    10:00 +21°C° 0 mm 5 mps 744 mmHg 76%
    11:00 +22°C° 0 mm 6 mps 744 mmHg 71%
    12:00 +22°C° 0.7 mm 6 mps 744 mmHg 73%
    13:00 +23°C° 0.7 mm 6 mps 743 mmHg 75%
    14:00 +23°C° 0.7 mm 7 mps 743 mmHg 78%
    15:00 +22°C° 0.8 mm 6 mps 743 mmHg 80%
    16:00 +21°C° 0.8 mm 6 mps 743 mmHg 82%
    17:00 +21°C° 0.8 mm 6 mps 743 mmHg 84%
    18:00 +20°C° 0.5 mm 5 mps 743 mmHg 85%
    19:00 +19°C° 0.5 mm 5 mps 743 mmHg 87%
    20:00 +19°C° 0.5 mm 5 mps 743 mmHg 88%
    21:00 +17°C° 1 mm 5 mps 743 mmHg 89%
    22:00 +18°C° 1 mm 4 mps 743 mmHg 91%
    23:00 +18°C° 1 mm 4 mps 743 mmHg 92%

    Tomorrow, 20 May, Monday

    Time Temperature Precipitation Wind Pressure Humidity
    00:00 +16°C° 0.3 mm 5 mps 743 mmHg 92%
    01:00 +16°C° 0.3 mm 5 mps 743 mmHg 93%
    02:00 +16°C° 0.3 mm 5 mps 743 mmHg 93%
    03:00 +16°C° 0.2 mm 5 mps 743 mmHg 94%
    04:00 +15°C° 0.2 mm 5 mps 743 mmHg 94%
    05:00 +15°C° 0.2 mm 5 mps 743 mmHg 95%
    06:00 +16°C° 0.3 mm 6 mps 743 mmHg 94%
    07:00 +16°C° 0.3 mm 6 mps 743 mmHg 93%
    08:00 +16°C° 0.3 mm 6 mps 743 mmHg 92%
    09:00 +17°C° 0.1 mm 6 mps 743 mmHg 89%
    10:00 +19°C° 0.1 mm 6 mps 743 mmHg 87%
    11:00 +21°C° 0.1 mm 7 mps 743 mmHg 84%
    12:00 +22°C° 0.4 mm 7 mps 743 mmHg 80%
    13:00 +23°C° 0.4 mm 7 mps 743 mmHg 75%
    14:00 +24°C° 0.4 mm 7 mps 743 mmHg 70%
    15:00 +24°C° 0.7 mm 7 mps 742 mmHg 74%
    16:00 +23°C° 0.7 mm 6 mps 742 mmHg 77%
    17:00 +22°C° 0.7 mm 5 mps 742 mmHg 80%
    18:00 +22°C° 0.4 mm 5 mps 742 mmHg 83%
    19:00 +21°C° 0.4 mm 5 mps 742 mmHg 85%
    20:00 +20°C° 0.4 mm 5 mps 742 mmHg 88%
    21:00 +19°C° 0.2 mm 5 mps 742 mmHg 89%
    22:00 +19°C° 0.2 mm 5 mps 742 mmHg 89%
    23:00 +17°C° 0.2 mm 5 mps 742 mmHg 90%

    Day after tomorrow, 21 May, Tuesday

    Time Temperature Precipitation Wind Pressure Humidity
    00:00 +17°C° 0 mm 5 mps 742 mmHg 92%
    01:00 +17°C° 0 mm 5 mps 742 mmHg 93%
    02:00 +17°C° 0 mm 4 mps 741 mmHg 95%
    03:00 +17°C° 0 mm 4 mps 741 mmHg 95%
    04:00 +16°C° 0 mm 5 mps 741 mmHg 96%
    05:00 +16°C° 0 mm 5 mps 741 mmHg 96%
    06:00 +17°C° 0.1 mm 5 mps 741 mmHg 94%
    07:00 +17°C° 0.1 mm 5 mps 741 mmHg 92%
    08:00 +17°C° 0.1 mm 6 mps 741 mmHg 91%
    09:00 +19°C° 0.1 mm 6 mps 741 mmHg 89%
    10:00 +19°C° 0.1 mm 5 mps 741 mmHg 86%
    11:00 +19°C° 0.1 mm 5 mps 741 mmHg 84%
    12:00 +20°C° 0.3 mm 5 mps 741 mmHg 84%
    13:00 +20°C° 0.3 mm 5 mps 741 mmHg 83%
    14:00 +20°C° 0.3 mm 5 mps 741 mmHg 82%
    15:00 +20°C° 0.3 mm 5 mps 741 mmHg 81%
    16:00 +20°C° 0.3 mm 5 mps 740 mmHg 80%
    17:00 +20°C° 0.3 mm 5 mps 740 mmHg 79%
    18:00 +20°C° 0.1 mm 4 mps 740 mmHg 83%
    19:00 +19°C° 0.1 mm 4 mps 740 mmHg 87%
    20:00 +18°C° 0.1 mm 3 mps 740 mmHg 90%
    21:00 +16°C° 0 mm 3 mps 740 mmHg 91%
    22:00 +15°C° 0 mm 2 mps 740 mmHg 92%
    23:00 +14°C° 0 mm 2 mps 741 mmHg 92%

    22 May, Wednesday

    Time Temperature Precipitation Wind Pressure Humidity
    00:00 +14°C° 0 mm 2 mps 741 mmHg 93%
    01:00 +13°C° 0 mm 2 mps 741 mmHg 94%
    02:00 +13°C° 0 mm 2 mps 741 mmHg 95%
    03:00 +13°C° 0 mm 2 mps 741 mmHg 95%
    04:00 +13°C° 0 mm 2 mps 741 mmHg 95%
    05:00 +12°C° 0 mm 2 mps 741 mmHg 96%
    06:00 +14°C° 0 mm 2 mps 741 mmHg 90%
    07:00 +16°C° 0 mm 2 mps 741 mmHg 85%
    08:00 +17°C° 0 mm 3 mps 741 mmHg 80%
    09:00 +19°C° 0 mm 3 mps 741 mmHg 75%
    10:00 +20°C° 0 mm 3 mps 741 mmHg 69%
    11:00 +21°C° 0 mm 4 mps 741 mmHg 63%
    12:00 +22°C° 0 mm 3 mps 741 mmHg 61%
    13:00 +24°C° 0 mm 3 mps 741 mmHg 59%
    14:00 +24°C° 0 mm 3 mps 741 mmHg 57%
    15:00 +24°C° 0 mm 3 mps 741 mmHg 58%
    16:00 +24°C° 0 mm 3 mps 741 mmHg 59%
    17:00 +24°C° 0 mm 2 mps 740 mmHg 60%
    18:00 +21°C° 0.1 mm 2 mps 740 mmHg 67%
    19:00 +20°C° 0.1 mm 2 mps 740 mmHg 74%
    20:00 +18°C° 0.1 mm 2 mps 740 mmHg 81%
    21:00 +17°C° 0 mm 2 mps 740 mmHg 84%
    22:00 +16°C° 0 mm 2 mps 740 mmHg 88%
    23:00 +15°C° 0 mm 1 mps 740 mmHg 91%

    23 May, Thursday

    Time Temperature Precipitation Wind Pressure Humidity
    00:00 +15°C° 0 mm 1 mps 740 mmHg 92%
    01:00 +14°C° 0 mm 1 mps 740 mmHg 92%
    02:00 +14°C° 0 mm 1 mps 740 mmHg 93%
    03:00 +14°C° 0 mm 2 mps 740 mmHg 94%
    04:00 +14°C° 0 mm 2 mps 740 mmHg 96%
    05:00 +13°C° 0 mm 2 mps 740 mmHg 97%
    06:00 +13°C° 0 mm 3 mps 740 mmHg 94%
    07:00 +14°C° 0 mm 3 mps 740 mmHg 92%
    08:00 +15°C° 0 mm 4 mps 740 mmHg 89%
    09:00 +17°C° 0 mm 4 mps 740 mmHg 86%
    10:00 +17°C° 0 mm 4 mps 740 mmHg 84%
    11:00 +17°C° 0 mm 4 mps 741 mmHg 81%
    12:00 +18°C° 0.1 mm 4 mps 741 mmHg 78%
    13:00 +19°C° 0.1 mm 4 mps 741 mmHg 75%
    14:00 +20°C° 0.1 mm 4 mps 741 mmHg 71%
    15:00 +19°C° 0.3 mm 5 mps 741 mmHg 76%
    16:00 +17°C° 0.3 mm 6 mps 741 mmHg 81%
    17:00 +15°C° 0.3 mm 7 mps 741 mmHg 86%
    18:00 +14°C° 0 mm 6 mps 742 mmHg 85%
    19:00 +14°C° 0 mm 6 mps 742 mmHg 84%
    20:00 +13°C° 0 mm 5 mps 742 mmHg 83%
    21:00 +12°C° 0 mm 5 mps 742 mmHg 81%
    22:00 +10°C° 0 mm 5 mps 742 mmHg 78%
    23:00 +9°C° 0 mm 5 mps 742 mmHg 76%

    24 May, Friday

    Time Temperature Precipitation Wind Pressure Humidity
    00:00 +8°C° 0 mm 5 mps 743 mmHg 77%
    01:00 +8°C° 0 mm 4 mps 743 mmHg 78%
    02:00 +7°C° 0 mm 4 mps 743 mmHg 79%
    03:00 +7°C° 0 mm 4 mps 743 mmHg 82%
    04:00 +6°C° 0 mm 4 mps 743 mmHg 84%
    05:00 +6°C° 0 mm 4 mps 743 mmHg 87%
    06:00 +7°C° 0 mm 4 mps 743 mmHg 82%
    07:00 +9°C° 0 mm 5 mps 743 mmHg 77%
    08:00 +12°C° 0 mm 5 mps 743 mmHg 72%
    09:00 +13°C° 0 mm 5 mps 743 mmHg 68%
    10:00 +15°C° 0 mm 5 mps 742 mmHg 64%
    11:00 +16°C° 0 mm 6 mps 742 mmHg 60%
    12:00 +16°C° 0 mm 5 mps 742 mmHg 61%
    13:00 +16°C° 0 mm 5 mps 742 mmHg 62%
    14:00 +17°C° 0 mm 4 mps 742 mmHg 62%
    15:00 +17°C° 0 mm 4 mps 742 mmHg 64%
    16:00 +17°C° 0 mm 4 mps 742 mmHg 66%
    17:00 +17°C° 0 mm 3 mps 742 mmHg 68%
    18:00 +16°C° 0 mm 3 mps 742 mmHg 73%
    19:00 +15°C° 0 mm 2 mps 742 mmHg 78%
    20:00 +13°C° 0 mm 1 mps 741 mmHg 83%
    21:00 +13°C° 0 mm 2 mps 742 mmHg 86%
    22:00 +12°C° 0 mm 2 mps 742 mmHg 88%
    23:00 +10°C° 0 mm 2 mps 742 mmHg 91%
    Show more